Time,TemperatureF,DewpointF,PressureIn,WindDirection,WindDirectionDegrees,WindSpeedMPH,WindSpeedGustMPH,Humidity,HourlyPrecipIn,Conditions,Clouds,dailyrainin,SoftwareType,DateUTC
2016-07-30 00:01:00,70.6,52.6,29.93,ENE,68,0.0,0.0,53,0.00,,,0.00,WUHU216HW,2016-07-30 07:01:00,
2016-07-30 00:06:00,70.4,52.9,29.93,ENE,68,0.0,0.0,54,0.00,,,0.00,WUHU216HW,2016-07-30 07:06:00,
2016-07-30 00:11:00,70.2,52.7,29.93,ENE,68,0.0,0.0,54,0.00,,,0.00,WUHU216HW,2016-07-30 07:11:00,
2016-07-30 00:16:00,70.0,52.1,29.93,ENE,68,0.0,0.0,53,0.00,,,0.00,WUHU216HW,2016-07-30 07:16:00,
2016-07-30 00:21:00,69.8,52.4,29.93,ENE,68,0.0,0.0,54,0.00,,,0.00,WUHU216HW,2016-07-30 07:21:00,
2016-07-30 00:26:00,69.5,52.1,29.94,ENE,68,0.0,0.0,54,0.00,,,0.00,WUHU216HW,2016-07-30 07:26:00,
2016-07-30 00:31:00,69.3,51.9,29.94,ENE,68,0.0,0.0,54,0.00,,,0.00,WUHU216HW,2016-07-30 07:31:00,
2016-07-30 00:36:00,69.1,51.8,29.94,ENE,68,0.0,0.0,54,0.00,,,0.00,WUHU216HW,2016-07-30 07:36:00,
2016-07-30 00:41:00,68.8,51.9,29.94,ENE,68,0.0,0.0,55,0.00,,,0.00,WUHU216HW,2016-07-30 07:41:00,
2016-07-30 00:46:00,68.6,51.8,29.94,ENE,68,0.0,0.0,55,0.00,,,0.00,WUHU216HW,2016-07-30 07:46:00,
2016-07-30 00:51:00,68.4,52.0,29.94,ENE,68,0.0,0.0,56,0.00,,,0.00,WUHU216HW,2016-07-30 07:51:00,
2016-07-30 00:56:00,68.2,51.8,29.95,ENE,68,0.0,0.0,56,0.00,,,0.00,WUHU216HW,2016-07-30 07:56:00,
2016-07-30 01:01:00,68.0,51.7,29.95,ENE,68,0.0,0.0,56,0.00,,,0.00,WUHU216HW,2016-07-30 08:01:00,
2016-07-30 01:06:00,67.9,51.6,29.95,ENE,68,0.0,0.0,56,0.00,,,0.00,WUHU216HW,2016-07-30 08:06:00,
2016-07-30 01:11:00,67.7,51.8,29.95,ENE,68,0.0,0.0,57,0.00,,,0.00,WUHU216HW,2016-07-30 08:11:00,
2016-07-30 01:16:00,67.5,51.7,29.95,ENE,68,0.0,0.0,57,0.00,,,0.00,WUHU216HW,2016-07-30 08:16:00,
2016-07-30 01:21:00,67.3,52.0,29.95,ENE,68,0.0,0.0,58,0.00,,,0.00,WUHU216HW,2016-07-30 08:21:00,
2016-07-30 01:26:00,67.1,51.8,29.95,ENE,68,0.0,0.0,58,0.00,,,0.00,WUHU216HW,2016-07-30 08:26:00,
2016-07-30 01:31:00,67.0,51.7,29.95,ENE,68,0.0,0.0,58,0.00,,,0.00,WUHU216HW,2016-07-30 08:31:00,
2016-07-30 01:36:00,66.8,51.6,29.95,ENE,68,0.0,0.0,58,0.00,,,0.00,WUHU216HW,2016-07-30 08:36:00,
2016-07-30 01:41:00,66.6,51.8,29.95,ENE,68,0.0,0.0,59,0.00,,,0.00,WUHU216HW,2016-07-30 08:41:00,
2016-07-30 01:46:00,66.4,51.7,29.95,ENE,68,0.0,0.0,59,0.00,,,0.00,WUHU216HW,2016-07-30 08:46:00,
2016-07-30 01:51:00,66.4,51.7,29.95,ENE,68,0.0,0.0,59,0.00,,,0.00,WUHU216HW,2016-07-30 08:51:00,
2016-07-30 01:56:00,66.1,51.8,29.95,ENE,68,0.0,0.0,60,0.00,,,0.00,WUHU216HW,2016-07-30 08:56:00,
2016-07-30 02:01:00,65.9,51.7,29.95,ENE,68,0.0,0.0,60,0.00,,,0.00,WUHU216HW,2016-07-30 09:01:00,
2016-07-30 02:06:00,65.7,51.5,29.95,ENE,68,0.0,0.0,60,0.00,,,0.00,WUHU216HW,2016-07-30 09:06:00,
2016-07-30 02:11:00,65.5,51.8,29.95,ENE,68,0.0,0.0,61,0.00,,,0.00,WUHU216HW,2016-07-30 09:11:00,
2016-07-30 02:16:00,65.5,51.8,29.96,ENE,68,0.0,0.0,61,0.00,,,0.00,WUHU216HW,2016-07-30 09:16:00,
2016-07-30 02:21:00,65.3,51.6,29.96,ENE,68,0.0,0.0,61,0.00,,,0.00,WUHU216HW,2016-07-30 09:21:00,
2016-07-30 02:26:00,65.2,51.4,29.96,ENE,68,0.0,0.0,61,0.00,,,0.00,WUHU216HW,2016-07-30 09:26:00,
2016-07-30 02:31:00,65.0,51.6,29.96,ENE,68,0.0,0.0,62,0.00,,,0.00,WUHU216HW,2016-07-30 09:31:00,
2016-07-30 02:36:00,64.8,51.5,29.96,ENE,68,0.0,0.0,62,0.00,,,0.00,WUHU216HW,2016-07-30 09:36:00,
2016-07-30 02:41:00,64.8,51.5,29.96,ENE,68,0.0,0.0,62,0.00,,,0.00,WUHU216HW,2016-07-30 09:41:00,
2016-07-30 02:46:00,64.6,51.3,29.96,ENE,68,0.0,0.0,62,0.00,,,0.00,WUHU216HW,2016-07-30 09:46:00,
2016-07-30 02:51:00,64.4,51.1,29.96,ENE,68,0.0,0.0,62,0.00,,,0.00,WUHU216HW,2016-07-30 09:51:00,
2016-07-30 02:56:00,64.4,51.5,29.96,ENE,68,0.0,0.0,63,0.00,,,0.00,WUHU216HW,2016-07-30 09:56:00,
2016-07-30 03:01:00,64.1,51.2,29.96,ENE,68,0.0,0.0,63,0.00,,,0.00,WUHU216HW,2016-07-30 10:01:00,
2016-07-30 03:06:00,64.1,51.2,29.96,ENE,68,0.0,0.0,63,0.00,,,0.00,WUHU216HW,2016-07-30 10:06:00,
2016-07-30 03:11:00,63.9,51.5,29.96,ENE,68,0.0,0.0,64,0.00,,,0.00,WUHU216HW,2016-07-30 10:11:00,
2016-07-30 03:16:00,63.7,51.3,29.96,ENE,68,0.0,0.0,64,0.00,,,0.00,WUHU216HW,2016-07-30 10:16:00,
2016-07-30 03:21:00,63.7,51.3,29.96,ENE,68,0.0,0.0,64,0.00,,,0.00,WUHU216HW,2016-07-30 10:21:00,
2016-07-30 03:26:00,63.4,51.4,29.96,ENE,68,0.0,0.0,65,0.00,,,0.00,WUHU216HW,2016-07-30 10:26:00,
2016-07-30 03:31:00,63.4,51.4,29.96,ENE,68,0.0,0.0,65,0.00,,,0.00,WUHU216HW,2016-07-30 10:31:00,
2016-07-30 03:36:00,63.2,51.2,29.96,ENE,68,0.0,0.0,65,0.00,,,0.00,WUHU216HW,2016-07-30 10:36:00,
2016-07-30 03:41:00,63.0,51.0,29.96,ENE,68,0.0,0.0,65,0.00,,,0.00,WUHU216HW,2016-07-30 10:41:00,
2016-07-30 03:46:00,63.0,51.0,29.96,ENE,68,0.0,0.0,65,0.00,,,0.00,WUHU216HW,2016-07-30 10:46:00,
2016-07-30 03:51:00,62.8,50.9,29.96,ENE,68,0.0,0.0,65,0.00,,,0.00,WUHU216HW,2016-07-30 10:51:00,
2016-07-30 03:56:00,62.6,51.1,29.96,ENE,68,0.0,0.0,66,0.00,,,0.00,WUHU216HW,2016-07-30 10:56:00,
2016-07-30 04:01:00,62.3,50.8,29.96,ENE,68,0.0,0.0,66,0.00,,,0.00,WUHU216HW,2016-07-30 11:01:00,
2016-07-30 04:06:00,62.3,50.8,29.96,ENE,68,0.0,0.0,66,0.00,,,0.00,WUHU216HW,2016-07-30 11:06:00,
2016-07-30 04:11:00,62.1,51.0,29.97,ENE,68,0.0,0.0,67,0.00,,,0.00,WUHU216HW,2016-07-30 11:11:00,
2016-07-30 04:16:00,61.9,50.9,29.97,ENE,68,0.0,0.0,67,0.00,,,0.00,WUHU216HW,2016-07-30 11:16:00,
2016-07-30 04:21:00,61.7,50.7,29.97,ENE,68,0.0,0.0,67,0.00,,,0.00,WUHU216HW,2016-07-30 11:21:00,
2016-07-30 04:26:00,61.6,50.5,29.97,ENE,68,0.0,0.0,67,0.00,,,0.00,WUHU216HW,2016-07-30 11:26:00,
2016-07-30 04:31:00,61.6,50.9,29.97,ENE,68,0.0,0.0,68,0.00,,,0.00,WUHU216HW,2016-07-30 11:31:00,
2016-07-30 04:36:00,61.6,50.9,29.97,ENE,68,0.0,0.0,68,0.00,,,0.00,WUHU216HW,2016-07-30 11:36:00,
2016-07-30 04:41:00,61.4,50.8,29.97,ENE,68,0.0,0.0,68,0.00,,,0.00,WUHU216HW,2016-07-30 11:41:00,
2016-07-30 04:46:00,61.4,51.2,29.97,ENE,68,0.0,0.0,69,0.00,,,0.00,WUHU216HW,2016-07-30 11:46:00,
2016-07-30 04:51:00,61.2,51.0,29.97,ENE,68,0.0,0.0,69,0.00,,,0.00,WUHU216HW,2016-07-30 11:51:00,
2016-07-30 04:56:00,61.0,50.5,29.97,ENE,68,0.0,0.0,68,0.00,,,0.00,WUHU216HW,2016-07-30 11:56:00,
2016-07-30 05:01:00,60.8,50.3,29.97,ENE,68,0.0,0.0,68,0.00,,,0.00,WUHU216HW,2016-07-30 12:01:00,
2016-07-30 05:06:00,60.8,50.3,29.97,ENE,68,0.0,0.0,68,0.00,,,0.00,WUHU216HW,2016-07-30 12:06:00,
2016-07-30 05:11:00,60.7,50.5,29.98,ENE,68,0.0,0.0,69,0.00,,,0.00,WUHU216HW,2016-07-30 12:11:00,
2016-07-30 05:16:00,60.5,50.3,29.98,ENE,68,0.0,0.0,69,0.00,,,0.00,WUHU216HW,2016-07-30 12:16:00,
2016-07-30 05:21:00,60.5,50.3,29.98,ENE,68,0.0,0.0,69,0.00,,,0.00,WUHU216HW,2016-07-30 12:21:00,
2016-07-30 05:26:00,60.3,50.1,29.98,ENE,68,0.0,0.0,69,0.00,,,0.00,WUHU216HW,2016-07-30 12:26:00,
2016-07-30 05:31:00,60.1,50.0,29.98,ENE,68,0.0,0.0,69,0.00,,,0.00,WUHU216HW,2016-07-30 12:31:00,
2016-07-30 05:36:00,59.9,49.8,29.98,ENE,68,0.0,0.0,69,0.00,,,0.00,WUHU216HW,2016-07-30 12:36:00,
2016-07-30 05:41:00,59.9,50.2,29.99,ENE,68,0.0,0.0,70,0.00,,,0.00,WUHU216HW,2016-07-30 12:41:00,
2016-07-30 05:46:00,59.9,50.2,29.98,ENE,68,0.0,0.0,70,0.00,,,0.00,WUHU216HW,2016-07-30 12:46:00,
2016-07-30 05:51:00,59.8,50.0,29.99,ENE,68,0.0,0.0,70,0.00,,,0.00,WUHU216HW,2016-07-30 12:51:00,
2016-07-30 05:56:00,59.6,49.9,29.99,ENE,68,0.0,0.0,70,0.00,,,0.00,WUHU216HW,2016-07-30 12:56:00,
2016-07-30 06:01:00,59.4,50.0,29.99,ENE,68,0.0,0.0,71,0.00,,,0.00,WUHU216HW,2016-07-30 13:01:00,
2016-07-30 06:06:00,59.4,50.0,29.99,North,0,0.0,0.0,71,0.00,,,0.00,WUHU216HW,2016-07-30 13:06:00,
2016-07-30 06:11:00,59.4,50.4,29.99,North,0,0.0,0.0,72,0.00,,,0.00,WUHU216HW,2016-07-30 13:11:00,
2016-07-30 06:16:00,59.4,50.0,29.99,ENE,68,0.0,0.0,71,0.00,,,0.00,WUHU216HW,2016-07-30 13:16:00,
2016-07-30 06:21:00,59.4,50.4,30.00,ENE,68,0.0,0.0,72,0.00,,,0.00,WUHU216HW,2016-07-30 13:21:00,
2016-07-30 06:26:00,59.4,50.4,30.00,ENE,68,0.0,0.0,72,0.00,,,0.00,WUHU216HW,2016-07-30 13:26:00,
2016-07-30 06:31:00,59.2,50.2,30.00,North,0,0.0,0.0,72,0.00,,,0.00,WUHU216HW,2016-07-30 13:31:00,
2016-07-30 06:36:00,59.2,50.6,30.00,ENE,68,0.0,0.0,73,0.00,,,0.00,WUHU216HW,2016-07-30 13:36:00,
2016-07-30 06:41:00,59.4,50.8,30.00,North,0,0.0,0.0,73,0.00,,,0.00,WUHU216HW,2016-07-30 13:41:00,
2016-07-30 06:46:00,59.4,51.8,30.01,ENE,68,0.0,0.0,76,0.00,,,0.00,WUHU216HW,2016-07-30 13:46:00,
2016-07-30 06:51:00,58.9,51.7,30.00,ENE,68,0.0,0.0,77,0.00,,,0.00,WUHU216HW,2016-07-30 13:51:00,
2016-07-30 06:56:00,58.9,51.7,30.01,ENE,68,0.0,0.0,77,0.00,,,0.00,WUHU216HW,2016-07-30 13:56:00,
2016-07-30 07:00:00,58.9,51.7,30.01,ENE,68,0.0,0.0,77,0.00,,,0.00,WUHU216HW,2016-07-30 14:00:00,
2016-07-30 07:05:00,59.0,51.8,30.01,ENE,68,0.0,0.0,77,0.00,,,0.00,WUHU216HW,2016-07-30 14:05:00,
2016-07-30 07:10:00,59.4,52.2,30.01,ENE,68,0.0,0.0,77,0.00,,,0.00,WUHU216HW,2016-07-30 14:10:00,
2016-07-30 07:15:00,59.8,52.6,30.01,ENE,68,0.0,0.0,77,0.00,,,0.00,WUHU216HW,2016-07-30 14:15:00,
2016-07-30 07:20:00,60.1,52.9,30.01,ENE,68,0.0,0.0,77,0.00,,,0.00,WUHU216HW,2016-07-30 14:20:00,
2016-07-30 07:25:00,60.5,53.3,30.01,ENE,68,0.0,0.0,77,0.00,,,0.00,WUHU216HW,2016-07-30 14:25:00,
2016-07-30 07:30:00,61.2,53.7,30.01,ENE,68,0.0,0.0,76,0.00,,,0.00,WUHU216HW,2016-07-30 14:30:00,
2016-07-30 07:35:00,61.9,54.3,30.01,ENE,68,0.0,0.2,76,0.00,,,0.00,WUHU216HW,2016-07-30 14:35:00,
2016-07-30 07:40:00,62.6,54.2,30.01,ENE,68,0.0,0.4,74,0.00,,,0.00,WUHU216HW,2016-07-30 14:40:00,
2016-07-30 07:45:00,63.2,54.7,30.02,North,0,1.1,1.1,74,0.00,,,0.00,WUHU216HW,2016-07-30 14:45:00,
2016-07-30 07:50:00,63.7,54.9,30.01,ESE,113,0.7,1.1,73,0.00,,,0.00,WUHU216HW,2016-07-30 14:50:00,
2016-07-30 07:55:00,63.7,53.8,30.01,ESE,113,0.0,1.3,70,0.00,,,0.00,WUHU216HW,2016-07-30 14:55:00,
2016-07-30 08:00:00,63.7,54.2,30.01,SSE,158,0.0,1.3,71,0.00,,,0.00,WUHU216HW,2016-07-30 15:00:00,
2016-07-30 08:05:00,64.1,54.5,30.01,SSE,158,0.2,1.1,71,0.00,,,0.00,WUHU216HW,2016-07-30 15:05:00,
2016-07-30 08:10:00,64.6,54.7,30.02,SSE,158,0.0,0.4,70,0.00,,,0.00,WUHU216HW,2016-07-30 15:10:00,
2016-07-30 08:15:00,65.2,54.7,30.02,WNW,293,0.0,1.6,69,0.00,,,0.00,WUHU216HW,2016-07-30 15:15:00,
2016-07-30 08:20:00,65.7,54.8,30.02,North,0,1.1,2.5,68,0.00,,,0.00,WUHU216HW,2016-07-30 15:20:00,
2016-07-30 08:25:00,66.1,54.4,30.02,North,0,2.0,2.5,66,0.00,,,0.00,WUHU216HW,2016-07-30 15:25:00,
2016-07-30 08:30:00,66.1,53.5,30.02,East,90,1.1,2.0,64,0.00,,,0.00,WUHU216HW,2016-07-30 15:30:00,
2016-07-30 08:35:00,66.2,54.1,30.02,NNE,23,0.7,1.8,65,0.00,,,0.00,WUHU216HW,2016-07-30 15:35:00,
2016-07-30 08:40:00,66.6,54.0,30.02,ESE,113,0.4,1.8,64,0.00,,,0.00,WUHU216HW,2016-07-30 15:40:00,
2016-07-30 08:45:00,67.0,53.6,30.02,ESE,113,0.4,1.3,62,0.00,,,0.00,WUHU216HW,2016-07-30 15:45:00,
2016-07-30 08:50:00,67.1,54.1,30.02,South,180,0.0,1.3,63,0.00,,,0.00,WUHU216HW,2016-07-30 15:50:00,
2016-07-30 08:55:00,68.0,55.4,30.02,South,180,0.7,1.1,64,0.00,,,0.00,WUHU216HW,2016-07-30 15:55:00,
2016-07-30 09:00:00,68.6,55.4,30.02,WSW,248,1.1,1.1,63,0.00,,,0.00,WUHU216HW,2016-07-30 16:00:00,
2016-07-30 09:05:00,69.1,56.0,30.02,SSW,203,0.4,1.6,63,0.00,,,0.00,WUHU216HW,2016-07-30 16:05:00,
2016-07-30 09:10:00,69.5,55.1,30.02,WNW,293,0.2,1.8,60,0.00,,,0.00,WUHU216HW,2016-07-30 16:10:00,
2016-07-30 09:15:00,69.3,54.9,30.02,NW,315,2.5,2.5,60,0.00,,,0.00,WUHU216HW,2016-07-30 16:15:00,
2016-07-30 09:20:00,69.1,54.2,30.02,WSW,248,0.4,2.5,59,0.00,,,0.00,WUHU216HW,2016-07-30 16:20:00,
2016-07-30 09:25:00,69.1,54.7,30.02,South,180,0.2,1.8,60,0.00,,,0.00,WUHU216HW,2016-07-30 16:25:00,
2016-07-30 09:30:00,69.3,54.4,30.02,SSE,158,0.2,1.6,59,0.00,,,0.00,WUHU216HW,2016-07-30 16:30:00,
2016-07-30 09:35:00,69.5,54.1,30.02,North,0,2.5,2.5,58,0.00,,,0.00,WUHU216HW,2016-07-30 16:35:00,
2016-07-30 09:40:00,68.8,52.9,30.02,NNW,338,1.6,2.9,57,0.00,,,0.00,WUHU216HW,2016-07-30 16:40:00,
2016-07-30 09:45:00,68.8,52.9,30.02,SE,135,0.2,2.9,57,0.00,,,0.00,WUHU216HW,2016-07-30 16:45:00,
2016-07-30 09:50:00,69.5,54.5,30.02,South,180,0.0,0.7,59,0.00,,,0.00,WUHU216HW,2016-07-30 16:50:00,
2016-07-30 09:55:00,69.8,53.9,30.02,NW,315,0.9,2.7,57,0.00,,,0.00,WUHU216HW,2016-07-30 16:55:00,
2016-07-30 10:00:00,69.8,53.5,30.02,North,0,2.0,2.7,56,0.00,,,0.00,WUHU216HW,2016-07-30 17:00:00,
2016-07-30 10:05:00,69.8,53.9,30.02,North,0,0.2,2.7,57,0.00,,,0.00,WUHU216HW,2016-07-30 17:05:00,
2016-07-30 10:10:00,69.5,53.1,30.02,East,90,1.1,1.8,56,0.00,,,0.00,WUHU216HW,2016-07-30 17:10:00,
2016-07-30 10:15:00,69.8,53.9,30.02,SE,135,0.4,1.8,57,0.00,,,0.00,WUHU216HW,2016-07-30 17:15:00,
2016-07-30 10:20:00,70.6,54.5,30.02,North,0,1.1,2.5,57,0.00,,,0.00,WUHU216HW,2016-07-30 17:20:00,
2016-07-30 10:25:00,70.6,53.1,30.01,NNE,23,1.8,2.5,54,0.00,,,0.00,WUHU216HW,2016-07-30 17:25:00,